Location: Saluda
(35.2377°N, 82.3468°W)
Time: 19:34:52
(UTC+00:00)

Explorer 11/Cluster Stage 4 - Pass Details

Date: 10 October 2022
Orbit: 466 x 1247 km, 28.8° (Epoch: 01 December)

Event Time Altitude Azimuth Distance (km) Brightness Sun altitude
Rises 17:35:54 0° 269° (W) 4,149 10.4 47.7°
Reaches altitude 10° 17:38:58 10° 263° (W) 3,208 10.0 47.6°
Maximum altitude 17:46:33 43° 196° (SSW) 1,668 11.3 47.3°
Drops below altitude 10° 17:53:43 10° 128° (SE) 3,026 9.9 47.0°
Sets 17:56:32 0° 122° (ESE) 3,895 10.3 46.9°
